When you browse on this site, cookies collect data to enhance your experience and personalize the content and advertising you see.
Visit our Privacy Policy to learn more. By continuing to use the site, you agree to this use of cookies and data.

Hourly Weather Ovruch

Today, 11 August, Tuesday

Time Temperature Precipitation Wind Pressure Humidity
00:00 +19°C° 0 mm 1 mps 747 mmHg 82%
01:00 +19°C° 0 mm 1 mps 748 mmHg 84%
02:00 +19°C° 0 mm 1 mps 748 mmHg 86%
03:00 +18°C° 0 mm 1 mps 748 mmHg 88%
04:00 +18°C° 0 mm 1 mps 748 mmHg 90%
05:00 +18°C° 0 mm 1 mps 748 mmHg 92%
06:00 +19°C° 0 mm 1 mps 748 mmHg 86%
07:00 +20°C° 0 mm 2 mps 748 mmHg 80%
08:00 +23°C° 0 mm 2 mps 748 mmHg 74%
09:00 +24°C° 0.1 mm 2 mps 748 mmHg 69%
10:00 +26°C° 0.1 mm 2 mps 748 mmHg 64%
11:00 +27°C° 0.1 mm 2 mps 747 mmHg 59%
12:00 +27°C° 1.2 mm 3 mps 747 mmHg 61%
13:00 +27°C° 1.2 mm 3 mps 747 mmHg 63%
14:00 +27°C° 1.2 mm 4 mps 747 mmHg 65%
15:00 +26°C° 0.3 mm 3 mps 747 mmHg 64%
16:00 +26°C° 0.3 mm 3 mps 747 mmHg 63%
17:00 +26°C° 0.3 mm 3 mps 747 mmHg 62%
18:00 +24°C° 0 mm 3 mps 747 mmHg 68%
19:00 +21°C° 0 mm 3 mps 748 mmHg 75%
20:00 +19°C° 0 mm 3 mps 748 mmHg 81%
21:00 +19°C° 0 mm 3 mps 748 mmHg 84%
22:00 +18°C° 0 mm 3 mps 748 mmHg 87%
23:00 +17°C° 0 mm 3 mps 748 mmHg 90%

Tomorrow, 12 August, Wednesday

Time Temperature Precipitation Wind Pressure Humidity
00:00 +16°C° 0 mm 3 mps 748 mmHg 90%
01:00 +15°C° 0 mm 2 mps 749 mmHg 91%
02:00 +14°C° 0 mm 2 mps 749 mmHg 91%
03:00 +14°C° 0 mm 2 mps 749 mmHg 92%
04:00 +13°C° 0 mm 2 mps 749 mmHg 92%
05:00 +13°C° 0 mm 2 mps 749 mmHg 93%
06:00 +13°C° 0 mm 3 mps 749 mmHg 85%
07:00 +16°C° 0 mm 3 mps 750 mmHg 78%
08:00 +17°C° 0 mm 3 mps 750 mmHg 70%
09:00 +18°C° 0 mm 3 mps 750 mmHg 64%
10:00 +20°C° 0 mm 4 mps 750 mmHg 57%
11:00 +21°C° 0 mm 4 mps 750 mmHg 51%
12:00 +21°C° 0 mm 4 mps 750 mmHg 51%
13:00 +21°C° 0 mm 4 mps 750 mmHg 50%
14:00 +21°C° 0 mm 4 mps 750 mmHg 50%
15:00 +21°C° 0 mm 4 mps 750 mmHg 52%
16:00 +21°C° 0 mm 3 mps 750 mmHg 55%
17:00 +20°C° 0 mm 3 mps 750 mmHg 57%
18:00 +19°C° 0 mm 3 mps 750 mmHg 65%
19:00 +17°C° 0 mm 2 mps 750 mmHg 72%
20:00 +15°C° 0 mm 2 mps 750 mmHg 80%
21:00 +15°C° 0 mm 2 mps 750 mmHg 83%
22:00 +14°C° 0 mm 1 mps 750 mmHg 86%
23:00 +13°C° 0 mm 1 mps 751 mmHg 89%

Day after tomorrow, 13 August, Thursday

Time Temperature Precipitation Wind Pressure Humidity
00:00 +13°C° 0 mm 1 mps 751 mmHg 89%
01:00 +12°C° 0 mm 1 mps 751 mmHg 89%
02:00 +12°C° 0 mm 1 mps 751 mmHg 90%
03:00 +12°C° 0 mm 1 mps 750 mmHg 91%
04:00 +11°C° 0 mm 1 mps 750 mmHg 93%
05:00 +11°C° 0 mm 1 mps 750 mmHg 94%
06:00 +13°C° 0 mm 2 mps 750 mmHg 88%
07:00 +15°C° 0 mm 2 mps 750 mmHg 81%
08:00 +16°C° 0 mm 2 mps 751 mmHg 74%
09:00 +17°C° 0 mm 2 mps 750 mmHg 70%
10:00 +18°C° 0 mm 3 mps 750 mmHg 65%
11:00 +19°C° 0 mm 3 mps 750 mmHg 61%
12:00 +20°C° 0 mm 3 mps 750 mmHg 56%
13:00 +20°C° 0 mm 3 mps 750 mmHg 51%
14:00 +21°C° 0 mm 3 mps 750 mmHg 47%
15:00 +21°C° 0 mm 3 mps 750 mmHg 48%
16:00 +20°C° 0 mm 3 mps 750 mmHg 50%
17:00 +20°C° 0 mm 3 mps 750 mmHg 51%
18:00 +18°C° 0 mm 3 mps 750 mmHg 58%
19:00 +16°C° 0 mm 2 mps 750 mmHg 66%
20:00 +15°C° 0 mm 2 mps 750 mmHg 73%
21:00 +14°C° 0 mm 1 mps 750 mmHg 75%
22:00 +13°C° 0 mm 1 mps 750 mmHg 78%
23:00 +12°C° 0 mm 1 mps 750 mmHg 81%

14 August, Friday

Time Temperature Precipitation Wind Pressure Humidity
00:00 +12°C° 0 mm 1 mps 750 mmHg 82%
01:00 +12°C° 0 mm 1 mps 750 mmHg 84%
02:00 +10°C° 0 mm 0 mps 750 mmHg 85%
03:00 +11°C° 0 mm 1 mps 750 mmHg 86%
04:00 +11°C° 0 mm 1 mps 750 mmHg 87%
05:00 +11°C° 0 mm 1 mps 750 mmHg 88%
06:00 +13°C° 0 mm 1 mps 750 mmHg 81%
07:00 +15°C° 0 mm 1 mps 750 mmHg 74%
08:00 +18°C° 0 mm 1 mps 750 mmHg 68%
09:00 +19°C° 0 mm 1 mps 751 mmHg 63%
10:00 +21°C° 0 mm 1 mps 751 mmHg 58%
11:00 +21°C° 0 mm 2 mps 751 mmHg 53%
12:00 +23°C° 0.1 mm 1 mps 751 mmHg 51%
13:00 +23°C° 0.1 mm 1 mps 750 mmHg 50%
14:00 +24°C° 0.1 mm 1 mps 750 mmHg 49%
15:00 +24°C° 0 mm 1 mps 750 mmHg 50%
16:00 +23°C° 0 mm 1 mps 750 mmHg 51%
17:00 +23°C° 0 mm 1 mps 749 mmHg 52%
18:00 +21°C° 0 mm 1 mps 749 mmHg 58%
19:00 +19°C° 0 mm 1 mps 749 mmHg 65%
20:00 +16°C° 0 mm 1 mps 749 mmHg 71%
21:00 +16°C° 0 mm 1 mps 750 mmHg 73%
22:00 +15°C° 0 mm 1 mps 750 mmHg 75%
23:00 +15°C° 0 mm 1 mps 750 mmHg 76%

15 August, Saturday

Time Temperature Precipitation Wind Pressure Humidity
00:00 +14°C° 0 mm 1 mps 750 mmHg 77%
01:00 +14°C° 0 mm 1 mps 750 mmHg 77%
02:00 +14°C° 0 mm 1 mps 750 mmHg 77%
03:00 +14°C° 0 mm 1 mps 750 mmHg 78%
04:00 +13°C° 0 mm 1 mps 749 mmHg 79%
05:00 +13°C° 0 mm 1 mps 749 mmHg 79%
06:00 +15°C° 0 mm 1 mps 749 mmHg 74%
07:00 +18°C° 0 mm 1 mps 749 mmHg 69%
08:00 +19°C° 0 mm 1 mps 749 mmHg 63%
09:00 +20°C° 0 mm 2 mps 749 mmHg 59%
10:00 +21°C° 0 mm 2 mps 749 mmHg 54%
11:00 +23°C° 0 mm 2 mps 749 mmHg 50%
12:00 +24°C° 0 mm 2 mps 749 mmHg 49%
13:00 +24°C° 0 mm 2 mps 748 mmHg 48%
14:00 +25°C° 0 mm 2 mps 748 mmHg 46%
15:00 +24°C° 0 mm 2 mps 748 mmHg 47%
16:00 +24°C° 0 mm 2 mps 748 mmHg 48%
17:00 +24°C° 0 mm 2 mps 747 mmHg 49%
18:00 +22°C° 0 mm 1 mps 747 mmHg 56%
19:00 +20°C° 0 mm 1 mps 747 mmHg 63%
20:00 +18°C° 0 mm 1 mps 747 mmHg 69%
21:00 +18°C° 0 mm 1 mps 747 mmHg 70%
22:00 +16°C° 0 mm 1 mps 747 mmHg 71%
23:00 +16°C° 0 mm 1 mps 747 mmHg 72%

16 August, Sunday

Time Temperature Precipitation Wind Pressure Humidity
00:00 +16°C° 0 mm 1 mps 747 mmHg 73%
01:00 +15°C° 0 mm 0 mps 747 mmHg 74%
02:00 +14°C° 0 mm 0 mps 747 mmHg 74%
03:00 +14°C° 0 mm 0 mps 747 mmHg 76%
04:00 +13°C° 0 mm 0 mps 747 mmHg 79%
05:00 +13°C° 0 mm 0 mps 747 mmHg 81%
06:00 +15°C° 0 mm 0 mps 747 mmHg 75%
07:00 +17°C° 0 mm 0 mps 747 mmHg 68%
08:00 +19°C° 0 mm 0 mps 747 mmHg 61%
09:00 +21°C° 0 mm 0 mps 747 mmHg 56%
10:00 +22°C° 0 mm 0 mps 747 mmHg 51%
11:00 +26°C° 0 mm 1 mps 747 mmHg 46%
12:00 +26°C° 0 mm 1 mps 747 mmHg 45%
13:00 +26°C° 0 mm 1 mps 746 mmHg 44%
14:00 +25°C° 0 mm 0 mps 746 mmHg 42%
15:00 +26°C° 0.1 mm 1 mps 746 mmHg 47%
16:00 +25°C° 0.1 mm 1 mps 746 mmHg 52%
17:00 +24°C° 0.1 mm 1 mps 746 mmHg 57%
18:00 +23°C° 0.1 mm 1 mps 746 mmHg 63%
19:00 +21°C° 0.1 mm 1 mps 746 mmHg 69%
20:00 +19°C° 0.1 mm 1 mps 746 mmHg 75%
21:00 +19°C° 0.8 mm 1 mps 746 mmHg 78%
22:00 +18°C° 0.8 mm 1 mps 746 mmHg 81%
23:00 +18°C° 0.8 mm 1 mps 746 mmHg 84%
Show more